Insider Buying

 
Symbol Name Keyword
Filings for:
Note: This page automatically refreshes every three minutes.
  Symbol Owner Relationship Date Cost # Shares Value($) Total Shares Filing
Y! SYBT Brown J McCauley Director May 23, 2019 $34.74 45 1,563 2,255 May 24, 2019, 01:09 PM
Y! SPKE Maxwell W Keith III Director May 22, 2019 $10.55 30,010 316,606 2,410,694 May 24, 2019, 01:08 PM
Y! ADC Erlich Craig Director May 22, 2019 $67.47 750 50,603 13,023 May 24, 2019, 01:07 PM
Y! SYBT Bickel Paul J III Director May 23, 2019 $34.74 90 3,127 2,378 May 24, 2019, 01:04 PM
Y! CLDB Langhenry Joseph P Director May 24, 2019 $23.50 34 799 10,970 May 24, 2019, 01:00 PM
Y! WAB KASSLING WILLIAM E Director May 23, 2019 $62.94 8,000 503,520 1,026,654 May 24, 2019, 12:51 PM
Y! VPRB Frija Kevin CEO, President & Chairman May 22, 2019 $0.07 132,650 9,367 15,722,058 May 24, 2019, 12:38 PM
Y! VPRB Frija Kevin CEO, President & Chairman May 23, 2019 $0.07 168,800 11,200 15,890,858 May 24, 2019, 12:38 PM
Y! GLT DEBENEDICTIS NICHOLAS Director May 23, 2019 $14.90 3,000 44,700 87,365 May 24, 2019, 12:37 PM
Y! GLT DEBENEDICTIS NICHOLAS Director May 22, 2019 $15.25 2,000 30,500 84,365 May 24, 2019, 12:37 PM
Y! GLT DEBENEDICTIS NICHOLAS Director May 24, 2019 $14.80 1,000 14,800 88,365 May 24, 2019, 12:37 PM
Y! CTSH Humphries Brian Chief Executive Officer May 23, 2019 $61.09 19,000 1,160,742 19,000 May 24, 2019, 12:27 PM
Y! BSGM LONDONER KENNETH L Chief Executive Officer May 23, 2019 $6.89 4,000 27,560 914,243 May 24, 2019, 12:19 PM
Y! BSGM LONDONER KENNETH L Chief Executive Officer May 22, 2019 $6.85 2,000 13,700 910,243 May 24, 2019, 12:19 PM
Y! MVBF Spielman Cheryl Director May 23, 2019 $15.57 500 7,785 1,000 May 24, 2019, 12:17 PM
Y! MVBF Spielman Cheryl Director May 22, 2019 $15.76 500 7,880 500 May 24, 2019, 12:17 PM
Y! CBAN Bagwell Lee Executive VP May 15, 2019 $17.20 2 34 5,579 May 24, 2019, 12:15 PM
Y! CLDB Koch Joseph E Director May 24, 2019 $23.50 34 799 12,538 May 24, 2019, 12:14 PM
Y! CBAN Hoyle M. Edward Jr. Regional Marketing Executive May 15, 2019 $17.20 19 327 7,074 May 24, 2019, 12:10 PM
Y! WTRE Levy Jon D. Chief Risk Officer May 22, 2019 $25.94 3,000 77,826 7,000 May 24, 2019, 12:05 PM
Y! CBAN ROSS ROBERT SIDNEY 10% Owner May 15, 2019 $17.20 2 34 522 May 24, 2019, 12:01 PM
Y! TPL HORIZON KINETICS ASSET MANAGEMENT LLC 10% Owner May 23, 2019 $792.09 36 28,515 297,184 May 24, 2019, 11:46 AM
Y! CLDB THOMPSON RICHARD B Director May 24, 2019 $23.50 43 1,011 175,282 May 24, 2019, 11:46 AM
Y! ACCA Pertile Richard K. Chief Executive Officer May 22, 2019 $0.04 6,452,725 258,109 12,459,605 May 24, 2019, 11:46 AM
Y! SGLB Schwartz Carl I. 10% Owner May 07, 2019 $1.40 400,000 560,000 400,000 May 24, 2019, 11:46 AM
Y! FCAP HUBER DANA L. Director May 23, 2019 $50.00 1,000 50,000 8,195 May 24, 2019, 11:38 AM
Y! CLDB Vross Anthony R Director May 24, 2019 $23.50 43 1,011 8,644 May 24, 2019, 11:31 AM
Y! EGY Bounds Cary M Chief Executive Officer & COO May 22, 2019 $1.68 6,000 10,080 470,095 May 24, 2019, 11:24 AM
Y! KYN Baker James C President May 22, 2019 $15.83 40,000 633,200 278,437 May 24, 2019, 11:24 AM
Y! CXDO MIHAYLO STEVEN G Chief Executive Officer May 22, 2019 $3.15 511 1,610 10,189,723 May 24, 2019, 11:24 AM
Y! TEAF THUMMEL ROBERT JOSEPH JR. Member of Investment Committee May 24, 2019 $18.75 1,300 24,375 2,550 May 24, 2019, 11:19 AM
Y! CLDB KABACK NEIL J Director May 24, 2019 $23.50 34 799 7,850 May 24, 2019, 11:18 AM
Y! ISNS Daly Joseph Patrick Director May 23, 2019 $5.30 4,000 21,200 5,070 May 24, 2019, 11:11 AM
Y! CLDB WOOFTER TIMOTHY K Director May 24, 2019 $23.50 64 1,504 9,745 May 24, 2019, 11:07 AM
Y! CLDB HOFFMAN JAMES E III Director May 24, 2019 $23.50 34 799 9,491 May 24, 2019, 10:43 AM
Y! CLDB COLE DAVID C Director May 24, 2019 $23.50 34 799 5,575 May 24, 2019, 10:14 AM
Y! CNBKA Filler James J 10% Owner Apr 10, 2019 $77.25 100 7,725 689,237 May 24, 2019, 09:53 AM
Y! CNBKA Filler James J 10% Owner Apr 26, 2019 $91.40 22 2,011 689,659 May 24, 2019, 09:53 AM
Y! CNBKA Filler James J 10% Owner May 22, 2019 $90.90 200 18,180 690,059 May 24, 2019, 09:53 AM
Y! CNBKA Filler James J 10% Owner Apr 22, 2019 $89.87 200 17,975 689,637 May 24, 2019, 09:53 AM
Y! CNBKA Filler James J 10% Owner May 16, 2019 $91.80 100 9,180 689,859 May 24, 2019, 09:53 AM
Y! CNBKA Filler James J 10% Owner Apr 15, 2019 $87.03 200 17,405 689,437 May 24, 2019, 09:53 AM
Y! CNBKA Filler James J 10% Owner Apr 29, 2019 $90.80 100 9,080 689,759 May 24, 2019, 09:53 AM
Y! BLPH Wang Theodore T Director May 22, 2019 $0.60 27,500 16,533 534,479 May 24, 2019, 09:30 AM
Y! FLXN MERRIFIELD C ANN Director May 23, 2019 $12.64 8,000 101,120 10,000 May 24, 2019, 09:15 AM
Y! IZEA Murphy Edward H President and CEO May 22, 2019 $0.58 1,000 580 203,356 May 24, 2019, 08:20 AM
Y! BRN Barnwell James S III Director May 22, 2019 $1.32 2,000 2,640 35,726 May 24, 2019, 08:15 AM
Y! TLGT Grenfell-Gardner Jason President & CEO May 23, 2019 $0.69 25,000 17,335 119,849 May 24, 2019, 08:00 AM
Y! TLGT GALE JAMES C Director May 23, 2019 $0.69 20,000 13,814 374,624 May 24, 2019, 08:00 AM
Y! LTS LAMPEN RICHARD CEO, President & Chairman May 23, 2019 $3.34 10,000 33,399 3,294,916 May 24, 2019, 07:48 AM
Y! CPLG Loeb David Director May 22, 2019 $12.75 500 6,375 12,459 May 24, 2019, 07:39 AM
Y! AXSM Saad Mark E Director May 23, 2019 $22.33 3,500 78,155 7,002 May 24, 2019, 07:19 AM
Y! MOTS Moran Timothy P. Chief Executive Officer May 22, 2019 $3.38 5,000 16,900 204,648 May 24, 2019, 07:02 AM
Y! OPK FROST PHILLIP MD ET AL CEO & Chairman May 23, 2019 $1.92 200,000 383,807 28,822,177 May 24, 2019, 06:53 AM
Y! AR RADY PAUL M See Remarks May 23, 2019 $6.80 7,350 49,946 9,583,483 May 23, 2019, 08:59 PM
Y! AR Warren Glen C Jr See Remarks May 23, 2019 $6.83 25,600 174,912 10,176,899 May 23, 2019, 08:59 PM
Y! AR Hardesty Benjamin A. Director May 22, 2019 $6.90 1,000 6,900 50,101 May 23, 2019, 08:55 PM
Y! UROV SVF Investments (UK) Ltd 10% Owner May 23, 2019 $7.76 4,802 37,252 22,745,107 May 23, 2019, 08:35 PM
Y! UROV SVF Investments (UK) Ltd 10% Owner May 22, 2019 $8.06 5,033 40,558 22,740,305 May 23, 2019, 08:35 PM
Y! UROV SVF Investments (UK) Ltd 10% Owner May 21, 2019 $8.52 9,995 85,108 22,735,272 May 23, 2019, 08:35 PM
Y! RIGL Schorno Dean L EVP &Chief Financial Officer May 22, 2019 $2.13 50,000 106,544 50,000 May 23, 2019, 08:21 PM
Y! MLVF KENT HOWARD Director May 22, 2019 $19.92 2,677 53,319 123,164 May 23, 2019, 07:48 PM
Y! MLVF KENT HOWARD Director May 21, 2019 $20.00 650 12,998 120,487 May 23, 2019, 07:48 PM
Y! QBAK BRONSON STEVEN N COB, CEO, President May 21, 2019 $5.75 99 569 585,281 May 23, 2019, 07:30 PM
Y! QBAK BRONSON STEVEN N COB, CEO, President May 23, 2019 $5.72 1,310 7,497 586,591 May 23, 2019, 07:30 PM
Y! TPB Diao H.C. Charles Director May 21, 2019 $50.54 2,000 101,080 13,000 May 23, 2019, 07:24 PM
Y! CVRS Cannon Louis A Director May 22, 2019 $2.63 7,500 19,719 299,767 May 23, 2019, 07:09 PM
Y! UROV VIKING GLOBAL INVESTORS LP 10% Owner May 23, 2019 $7.76 4,802 37,252 22,745,107 May 23, 2019, 06:37 PM
Y! UROV VIKING GLOBAL INVESTORS LP 10% Owner May 22, 2019 $8.06 5,033 40,558 22,740,305 May 23, 2019, 06:37 PM
Y! UROV VIKING GLOBAL INVESTORS LP 10% Owner May 21, 2019 $9995.00 9,995 99,900,025 22,735,272 May 23, 2019, 06:37 PM
Y! UROV VIKING GLOBAL PERFORMANCE LLC 10% Owner May 22, 2019 $8.06 5,033 40,558 22,740,305 May 23, 2019, 06:36 PM
Y! UROV VIKING GLOBAL PERFORMANCE LLC 10% Owner May 21, 2019 $8.52 9,995 85,108 22,735,272 May 23, 2019, 06:36 PM
Y! UROV VIKING GLOBAL PERFORMANCE LLC 10% Owner May 23, 2019 $7.76 4,802 37,252 22,745,107 May 23, 2019, 06:36 PM
Y! UROV Machado Patrick 10% Owner May 22, 2019 $8.06 5,033 40,558 22,740,305 May 23, 2019, 06:30 PM
Y! UROV Machado Patrick 10% Owner May 21, 2019 $8.52 9,995 85,108 22,735,272 May 23, 2019, 06:30 PM
Y! UROV Machado Patrick 10% Owner May 23, 2019 $7.76 4,802 37,252 22,745,107 May 23, 2019, 06:30 PM
Y! LAZY Coliseum Capital Management, LLC Director May 23, 2019 $4.95 100 495 264,997 May 23, 2019, 06:26 PM
Y! LAZY Coliseum Capital Management, LLC Director May 21, 2019 $4.99 4,614 23,024 264,897 May 23, 2019, 06:26 PM
Y! UROV QVT Associates GP LLC 10% Owner May 21, 2019 $8.52 9,995 85,108 22,735,272 May 23, 2019, 06:26 PM
Y! UROV QVT Associates GP LLC 10% Owner May 23, 2019 $7.76 4,802 37,252 22,745,107 May 23, 2019, 06:26 PM
Y! UROV QVT Associates GP LLC 10% Owner May 22, 2019 $8.06 5,033 40,558 22,740,305 May 23, 2019, 06:26 PM
Y! UROV Lo Andrew 10% Owner May 22, 2019 $8.06 5,033 40,558 22,740,305 May 23, 2019, 06:21 PM
Y! UROV Lo Andrew 10% Owner May 21, 2019 $8.52 9,995 85,108 22,735,272 May 23, 2019, 06:21 PM
Y! UROV Lo Andrew 10% Owner May 23, 2019 $7.76 4,802 37,252 22,745,107 May 23, 2019, 06:21 PM
Y! XRAY LUCIER GREGORY T Director May 23, 2019 $53.60 10,000 536,047 10,000 May 23, 2019, 06:14 PM
Y! CTL STOREY JEFFREY K President & CEO May 23, 2019 $9.83 50,000 491,480 3,240,001 May 23, 2019, 06:03 PM
Y! CTL Dev Indraneel EVP and CFO May 23, 2019 $9.81 15,000 147,155 474,153 May 23, 2019, 06:02 PM
Y! FUND GEORGE W WHITNEY Director May 21, 2019 $6.67 24,409 162,913 1,677,065 May 23, 2019, 06:01 PM
Y! FUND GEORGE W WHITNEY Director May 23, 2019 $6.60 18,800 124,018 5,719,222 May 23, 2019, 06:01 PM
Y! FUND GEORGE W WHITNEY Director May 22, 2019 $6.69 20,500 137,198 5,700,422 May 23, 2019, 06:01 PM
Y! UROV Roivant Sciences Ltd. 10% Owner May 21, 2019 $8.52 9,995 85,108 22,735,272 May 23, 2019, 06:00 PM
Y! UROV Roivant Sciences Ltd. 10% Owner May 23, 2019 $7.76 4,802 37,252 22,745,107 May 23, 2019, 06:00 PM
Y! UROV Roivant Sciences Ltd. 10% Owner May 22, 2019 $8.06 5,033 40,558 22,740,305 May 23, 2019, 06:00 PM
Y! ENOB Sindlev Rene Director May 21, 2019 $5.75 20,000 115,000 6,442,830 May 23, 2019, 05:39 PM
Y! TSC Seidel Richard B. Director May 21, 2019 $25.00 2,000 50,000 2,000 May 23, 2019, 05:35 PM
Y! TSC Dolan James J. Director May 21, 2019 $25.00 4,000 100,000 4,000 May 23, 2019, 05:32 PM
Y! TSC Casey Helen Hanna Director May 21, 2019 $25.00 20,000 500,000 20,000 May 23, 2019, 05:28 PM
Y! SGLB Schwartz Carl I. 10% Owner May 07, 2019 $1.40 400,000 560,000 400,000 May 23, 2019, 05:25 PM
Y! IVFH JCP Investment Management, LLC 10% Owner May 21, 2019 $0.52 15,019 7,810 3,373,885 May 23, 2019, 05:25 PM
Y! IVFH JCP Investment Management, LLC 10% Owner May 21, 2019 $0.52 716 372 53,155 May 23, 2019, 05:25 PM
First : Previous : Next : Last
 
Symbol Name Keyword
Filings for:
Note: This page automatically refreshes every three minutes.
Desktop Version
Symbol Owner Relationship Date Value($)
SYBT Brown J McCauley Director May 23, 2019 1,563
SPKE Maxwell W Keith III Director May 22, 2019 316,606
ADC Erlich Craig Director May 22, 2019 50,603
SYBT Bickel Paul J III Director May 23, 2019 3,127
CLDB Langhenry Joseph P Director May 24, 2019 799
WAB KASSLING WILLIAM E Director May 23, 2019 503,520
VPRB Frija Kevin CEO, President & Chairman May 22, 2019 9,367
VPRB Frija Kevin CEO, President & Chairman May 23, 2019 11,200
GLT DEBENEDICTIS NICHOLAS Director May 23, 2019 44,700
GLT DEBENEDICTIS NICHOLAS Director May 22, 2019 30,500
GLT DEBENEDICTIS NICHOLAS Director May 24, 2019 14,800
CTSH Humphries Brian Chief Executive Officer May 23, 2019 1,160,742
BSGM LONDONER KENNETH L Chief Executive Officer May 23, 2019 27,560
BSGM LONDONER KENNETH L Chief Executive Officer May 22, 2019 13,700
MVBF Spielman Cheryl Director May 23, 2019 7,785
MVBF Spielman Cheryl Director May 22, 2019 7,880
CBAN Bagwell Lee Executive VP May 15, 2019 34
CLDB Koch Joseph E Director May 24, 2019 799
CBAN Hoyle M. Edward Jr. Regional Marketing Executive May 15, 2019 327
WTRE Levy Jon D. Chief Risk Officer May 22, 2019 77,826
CBAN ROSS ROBERT SIDNEY 10% Owner May 15, 2019 34
TPL HORIZON KINETICS ASSET MANAGEMENT LLC 10% Owner May 23, 2019 28,515
CLDB THOMPSON RICHARD B Director May 24, 2019 1,011
ACCA Pertile Richard K. Chief Executive Officer May 22, 2019 258,109
SGLB Schwartz Carl I. 10% Owner May 07, 2019 560,000
FCAP HUBER DANA L. Director May 23, 2019 50,000
CLDB Vross Anthony R Director May 24, 2019 1,011
EGY Bounds Cary M Chief Executive Officer & COO May 22, 2019 10,080
KYN Baker James C President May 22, 2019 633,200
CXDO MIHAYLO STEVEN G Chief Executive Officer May 22, 2019 1,610
TEAF THUMMEL ROBERT JOSEPH JR. Member of Investment Committee May 24, 2019 24,375
CLDB KABACK NEIL J Director May 24, 2019 799
ISNS Daly Joseph Patrick Director May 23, 2019 21,200
CLDB WOOFTER TIMOTHY K Director May 24, 2019 1,504
CLDB HOFFMAN JAMES E III Director May 24, 2019 799
CLDB COLE DAVID C Director May 24, 2019 799
CNBKA Filler James J 10% Owner Apr 10, 2019 7,725
CNBKA Filler James J 10% Owner Apr 26, 2019 2,011
CNBKA Filler James J 10% Owner May 22, 2019 18,180
CNBKA Filler James J 10% Owner Apr 22, 2019 17,975
CNBKA Filler James J 10% Owner May 16, 2019 9,180
CNBKA Filler James J 10% Owner Apr 15, 2019 17,405
CNBKA Filler James J 10% Owner Apr 29, 2019 9,080
BLPH Wang Theodore T Director May 22, 2019 16,533
FLXN MERRIFIELD C ANN Director May 23, 2019 101,120
IZEA Murphy Edward H President and CEO May 22, 2019 580
BRN Barnwell James S III Director May 22, 2019 2,640
TLGT Grenfell-Gardner Jason President & CEO May 23, 2019 17,335
TLGT GALE JAMES C Director May 23, 2019 13,814
LTS LAMPEN RICHARD CEO, President & Chairman May 23, 2019 33,399
CPLG Loeb David Director May 22, 2019 6,375
AXSM Saad Mark E Director May 23, 2019 78,155
MOTS Moran Timothy P. Chief Executive Officer May 22, 2019 16,900
OPK FROST PHILLIP MD ET AL CEO & Chairman May 23, 2019 383,807
AR RADY PAUL M See Remarks May 23, 2019 49,946
AR Warren Glen C Jr See Remarks May 23, 2019 174,912
AR Hardesty Benjamin A. Director May 22, 2019 6,900
UROV SVF Investments (UK) Ltd 10% Owner May 23, 2019 37,252
UROV SVF Investments (UK) Ltd 10% Owner May 22, 2019 40,558
UROV SVF Investments (UK) Ltd 10% Owner May 21, 2019 85,108
RIGL Schorno Dean L EVP &Chief Financial Officer May 22, 2019 106,544
MLVF KENT HOWARD Director May 22, 2019 53,319
MLVF KENT HOWARD Director May 21, 2019 12,998
QBAK BRONSON STEVEN N COB, CEO, President May 21, 2019 569
QBAK BRONSON STEVEN N COB, CEO, President May 23, 2019 7,497
TPB Diao H.C. Charles Director May 21, 2019 101,080
CVRS Cannon Louis A Director May 22, 2019 19,719
UROV VIKING GLOBAL INVESTORS LP 10% Owner May 23, 2019 37,252
UROV VIKING GLOBAL INVESTORS LP 10% Owner May 22, 2019 40,558
UROV VIKING GLOBAL INVESTORS LP 10% Owner May 21, 2019 99,900,025
UROV VIKING GLOBAL PERFORMANCE LLC 10% Owner May 22, 2019 40,558
UROV VIKING GLOBAL PERFORMANCE LLC 10% Owner May 21, 2019 85,108
UROV VIKING GLOBAL PERFORMANCE LLC 10% Owner May 23, 2019 37,252
UROV Machado Patrick 10% Owner May 22, 2019 40,558
UROV Machado Patrick 10% Owner May 21, 2019 85,108
UROV Machado Patrick 10% Owner May 23, 2019 37,252
LAZY Coliseum Capital Management, LLC Director May 23, 2019 495
LAZY Coliseum Capital Management, LLC Director May 21, 2019 23,024
UROV QVT Associates GP LLC 10% Owner May 21, 2019 85,108
UROV QVT Associates GP LLC 10% Owner May 23, 2019 37,252
UROV QVT Associates GP LLC 10% Owner May 22, 2019 40,558
UROV Lo Andrew 10% Owner May 22, 2019 40,558
UROV Lo Andrew 10% Owner May 21, 2019 85,108
UROV Lo Andrew 10% Owner May 23, 2019 37,252
XRAY LUCIER GREGORY T Director May 23, 2019 536,047
CTL STOREY JEFFREY K President & CEO May 23, 2019 491,480
CTL Dev Indraneel EVP and CFO May 23, 2019 147,155
FUND GEORGE W WHITNEY Director May 21, 2019 162,913
FUND GEORGE W WHITNEY Director May 23, 2019 124,018
FUND GEORGE W WHITNEY Director May 22, 2019 137,198
UROV Roivant Sciences Ltd. 10% Owner May 21, 2019 85,108
UROV Roivant Sciences Ltd. 10% Owner May 23, 2019 37,252
UROV Roivant Sciences Ltd. 10% Owner May 22, 2019 40,558
ENOB Sindlev Rene Director May 21, 2019 115,000
TSC Seidel Richard B. Director May 21, 2019 50,000
TSC Dolan James J. Director May 21, 2019 100,000
TSC Casey Helen Hanna Director May 21, 2019 500,000
SGLB Schwartz Carl I. 10% Owner May 07, 2019 560,000
IVFH JCP Investment Management, LLC 10% Owner May 21, 2019 7,810
IVFH JCP Investment Management, LLC 10% Owner May 21, 2019 372
First : Previous : Next : Last